TimeMST,TemperatureF,Dew PointF,Humidity,Sea Level PressureIn,VisibilityMPH,Wind Direction,Wind SpeedMPH,Gust SpeedMPH,PrecipitationIn,Events,Conditions,WindDirDegrees,DateUTC
12:53 AM,30.0,15.1,54,30.05,10.0,SSW,16.1,26.5,N/A,,Clear,210,2013-12-31 07:53:00
1:25 AM,30.2,15.8,55,30.01,10.0,WSW,26.5,36.8,N/A,,Clear,250,2013-12-31 08:25:00
1:53 AM,30.9,16.0,54,30.04,10.0,WSW,20.7,33.4,N/A,,Clear,240,2013-12-31 08:53:00
2:53 AM,30.9,19.0,61,30.04,10.0,WSW,25.3,35.7,N/A,,Clear,250,2013-12-31 09:53:00
3:53 AM,28.0,19.9,72,30.08,10.0,SW,10.4,-,N/A,,Overcast,220,2013-12-31 10:53:00
4:53 AM,30.0,21.0,69,30.06,10.0,SW,12.7,-,N/A,,Mostly Cloudy,230,2013-12-31 11:53:00
5:53 AM,28.0,23.0,81,30.06,10.0,WSW,13.8,20.7,N/A,,Overcast,240,2013-12-31 12:53:00
6:53 AM,30.0,21.9,72,30.03,10.0,SW,26.5,32.2,N/A,,Clear,230,2013-12-31 13:53:00
7:53 AM,30.0,21.0,69,30.05,10.0,WSW,23.0,-,N/A,,Clear,250,2013-12-31 14:53:00
8:53 AM,32.0,21.9,66,30.09,10.0,SW,13.8,-,N/A,,Clear,230,2013-12-31 15:53:00
9:53 AM,34.0,21.9,61,30.07,10.0,WSW,26.5,31.1,N/A,,Mostly Cloudy,250,2013-12-31 16:53:00
10:53 AM,34.0,21.9,61,30.06,10.0,WSW,26.5,31.1,N/A,,Mostly Cloudy,250,2013-12-31 17:53:00
11:53 AM,37.0,21.9,54,29.99,10.0,WSW,28.8,35.7,N/A,,Clear,250,2013-12-31 18:53:00
12:53 PM,37.9,21.9,53,29.97,10.0,West,28.8,38.0,N/A,,Clear,260,2013-12-31 19:53:00
1:53 PM,37.9,21.9,53,29.97,10.0,West,16.1,26.5,N/A,,Mostly Cloudy,260,2013-12-31 20:53:00
2:53 PM,36.0,21.0,55,29.97,10.0,WSW,23.0,-,N/A,,Partly Cloudy,250,2013-12-31 21:53:00
3:53 PM,35.1,21.9,59,29.99,10.0,SW,20.7,29.9,N/A,,Mostly Cloudy,220,2013-12-31 22:53:00
4:53 PM,34.0,21.9,61,30.00,10.0,SSW,9.2,18.4,N/A,,Overcast,200,2013-12-31 23:53:00
5:53 PM,34.0,21.9,61,29.93,10.0,WSW,39.1,-,N/A,,Clear,240,2014-01-01 00:53:00
6:53 PM,34.0,21.0,59,29.91,10.0,WSW,35.7,42.6,N/A,,Clear,240,2014-01-01 01:53:00
7:53 PM,32.0,21.0,64,29.96,10.0,SW,15.0,25.3,N/A,,Clear,230,2014-01-01 02:53:00
8:37 PM,32.0,21.2,64,29.94,10.0,WSW,26.5,31.1,N/A,,Clear,250,2014-01-01 03:37:00
8:53 PM,33.1,21.9,64,29.93,10.0,WSW,25.3,-,N/A,,Clear,240,2014-01-01 03:53:00
9:53 PM,33.1,21.9,64,29.91,10.0,South,8.1,-,N/A,,Overcast,190,2014-01-01 04:53:00
10:53 PM,34.0,21.9,61,29.90,10.0,SSW,15.0,25.3,N/A,,Overcast,200,2014-01-01 05:53:00
11:53 PM,30.9,25.0,79,29.91,10.0,SW,12.7,-,N/A,,Overcast,220,2014-01-01 06:53:00